Decatur, AL

9:59 PM CDT on July 26, 2017 (GMT -0500)
Pryor Regional

Weather History for KDCU - September, 2012

Change the Weather History Date:

Tuesday, September 4, 2012

  Actual Average Record
Temperature  
Mean Temperature 80 °F -  
Max Temperature 89 °F 86 °F 105 °F (1954)
Min Temperature 73 °F 63 °F 49 °F (1952)
Cooling Degree Days 16    
Growing Degree Days 30 (Base 50)    
Moisture  
Dew Point 74 °F    
Average Humidity 90    
Maximum Humidity 100    
Minimum Humidity 67    
Precipitation  
Precipitation 0.00 in - - ()
Sea Level Pressure  
Sea Level Pressure 29.88 in    
Wind  
Wind Speed 3 mph (SE)    
Max Wind Speed 6 mph    
Max Gust Speed -    
Visibility 8 miles    
Events      
Averages and records for this station are not official NWS values.
T = Trace of Precipitation, MM = Missing Value Source: NWS Daily Summary

Daily Weather History Graph

Daily Weather History Graph

Search for Another Location

Airport or City:

Trip Planner

Search our weather history database for the weather conditions in past years. The results will help you decide how hot, cold, wet, or windy it might be!

Date:

Astronomy

Sep. 04, 2012 Rise Set
Actual Time 6:23 AM CDT 7:09 PM CDT
Civil Twilight 5:57 AM CDT 7:34 PM CDT
Nautical Twilight 5:27 AM CDT 8:05 PM CDT
Astronomical Twilight 4:56 AM CDT 8:35 PM CDT
Moon 9:16 PM CDT (9/4) 10:16 AM CDT (9/4)
Length of Visible Light 13h 37m
Length of Day
12h 46m
Waning Gibbous, 83% of the Moon is Illuminated
Sep 4
Waning Gibbous
Sep 8
Last Quarter
Sep 15
New
Sep 22
First Quarter
Sep 29
Full

Hourly Weather History & Observations

Time (CDT) Temp. Heat Index Dew Point Humidity Pressure Visibility Wind Dir Wind Speed Gust Speed Precip Events Conditions
12:20 AM 75.2 °F - 75.2 °F 100% 29.90 in 6.0 mi SSE 4.6 mph - N/A   Overcast
12:53 AM 75.9 °F - 75.0 °F 97% 29.88 in 6.0 mi South 3.5 mph - N/A   Overcast
1:00 AM 75.2 °F - 75.2 °F 100% 29.89 in 7.0 mi WSW 3.5 mph - N/A   Overcast
1:13 AM 75.2 °F - 75.2 °F 100% 29.89 in 9.0 mi WSW 3.5 mph - N/A   Overcast
1:53 AM 75.0 °F - 73.9 °F 96% 29.87 in 9.0 mi South 5.8 mph - N/A   Overcast
2:53 AM 75.0 °F - 73.0 °F 94% 29.87 in 10.0 mi South 3.5 mph - N/A   Overcast
3:53 AM 73.9 °F - 73.0 °F 97% 29.86 in 8.0 mi South 3.5 mph - N/A   Overcast
4:08 AM 73.4 °F - 73.4 °F 100% 29.88 in 9.0 mi South 5.8 mph - N/A   Overcast
4:53 AM 73.9 °F - 73.0 °F 97% 29.87 in 9.0 mi South 4.6 mph - N/A   Overcast
5:00 AM 73.4 °F - 73.4 °F 100% 29.88 in 9.0 mi SSE 3.5 mph - N/A   Overcast
5:14 AM 73.4 °F - 73.4 °F 100% 29.88 in 10.0 mi Calm Calm - N/A   Overcast
5:39 AM 73.4 °F - 71.6 °F 94% 29.88 in 8.0 mi Calm Calm - N/A   Scattered Clouds
5:53 AM 73.0 °F - 72.0 °F 96% 29.86 in 7.0 mi Calm Calm - N/A   Partly Cloudy
6:53 AM 73.0 °F - 73.0 °F 100% 29.87 in 6.0 mi Calm Calm - N/A   Mostly Cloudy
7:53 AM 75.0 °F - 73.9 °F 96% 29.87 in 7.0 mi Calm Calm - N/A   Partly Cloudy
8:09 AM 75.2 °F - 73.4 °F 94% 29.89 in 8.0 mi East 3.5 mph - N/A   Mostly Cloudy
8:53 AM 75.9 °F - 73.9 °F 94% 29.88 in 7.0 mi Calm Calm - N/A   Overcast
9:53 AM 78.1 °F - 73.9 °F 87% 29.91 in 7.0 mi ENE 3.5 mph - N/A   Overcast
10:14 AM 78.8 °F - 73.4 °F 83% 29.93 in 7.0 mi ENE 3.5 mph - N/A   Overcast
10:53 AM 79.0 °F - 73.9 °F 84% 29.91 in 6.0 mi East 4.6 mph - N/A   Haze
11:53 AM 81.0 °F 86.7 °F 75.0 °F 82% 29.89 in 6.0 mi East 3.5 mph - N/A   Haze
12:08 PM 82.4 °F 89.5 °F 75.2 °F 79% 29.92 in 7.0 mi Calm Calm - N/A   Mostly Cloudy
12:19 PM 82.4 °F 89.5 °F 75.2 °F 79% 29.92 in 7.0 mi Calm Calm - N/A   Mostly Cloudy
12:50 PM 84.2 °F 92.3 °F 75.2 °F 74% 29.91 in 8.0 mi Calm Calm - N/A   Mostly Cloudy
12:53 PM 82.9 °F 90.8 °F 75.9 °F 79% 29.89 in 8.0 mi Calm Calm - N/A   Mostly Cloudy
1:53 PM 84.9 °F 93.3 °F 75.0 °F 72% 29.87 in 8.0 mi Calm Calm - N/A   Mostly Cloudy
2:53 PM 86.0 °F 96.0 °F 75.9 °F 72% 29.85 in 8.0 mi Variable 3.5 mph - N/A   Scattered Clouds
3:53 PM 88.0 °F 98.5 °F 75.9 °F 67% 29.85 in 9.0 mi Calm Calm - N/A   Mostly Cloudy
5:53 PM 84.9 °F 94.1 °F 75.9 °F 74% 29.85 in 10.0 mi Calm Calm - N/A   Scattered Clouds
6:53 PM 82.9 °F 93.8 °F 79.0 °F 88% 29.85 in 8.0 mi Calm Calm - N/A   Overcast
7:53 PM 80.1 °F 85.4 °F 75.9 °F 87% 29.86 in 9.0 mi SE 5.8 mph - N/A   Overcast
8:53 PM 78.1 °F - 75.9 °F 93% 29.88 in 9.0 mi ESE 3.5 mph - N/A   Mostly Cloudy
9:53 PM 77.0 °F - 75.0 °F 94% 29.88 in 8.0 mi SSE 4.6 mph - N/A   Clear
10:53 PM 75.9 °F - 75.0 °F 97% 29.88 in 7.0 mi ESE 3.5 mph - N/A   Clear
11:53 PM 75.0 °F - 73.9 °F 96% 29.88 in 6.0 mi ESE 3.5 mph - N/A   Clear